South Haven, MI

3:41 PM EDT on September 25, 2017 (GMT -0400)
South Haven

Weather History for KLWA - January, 2014

Change the Weather History Date:

Wednesday, January 15, 2014

  Actual Average (KBEH) Record (KBEH)
Temperature  
Mean Temperature 21 °F -  
Max Temperature 25 °F 30 °F 60 °F (1949)
Min Temperature 15 °F 18 °F -7 °F (1972)
Degree Days  
Heating Degree Days 44    
Moisture  
Dew Point 17 °F    
Average Humidity 78    
Maximum Humidity 91    
Minimum Humidity 67    
Precipitation  
Precipitation 0.00 in - - ()
Sea Level Pressure  
Sea Level Pressure 29.93 in    
Wind  
Wind Speed 14 mph (West)    
Max Wind Speed 23 mph    
Max Gust Speed 34 mph    
Visibility 6 miles    
Events Snow    
Averages and records for this station are not official NWS values.
T = Trace of Precipitation, MM = Missing Value Source: NWS Daily Summary

Daily Weather History Graph

Daily Weather History Graph

Search for Another Location

Airport or City:

Trip Planner

Search our weather history database for the weather conditions in past years. The results will help you decide how hot, cold, wet, or windy it might be!

Date:

Astronomy

Jan. 15, 2014 Rise Set
Actual Time 8:11 AM EST 5:37 PM EST
Civil Twilight 7:40 AM EST 6:08 PM EST
Nautical Twilight 7:05 AM EST 6:43 PM EST
Astronomical Twilight 6:32 AM EST 7:17 PM EST
Moon 5:36 PM EST (1/15) 7:26 AM EST (1/15)
Length of Visible Light 10h 28m
Length of Day
9h 26m
Full, 100% of the Moon is Illuminated
Jan 15
Full
Jan 15
Full
Jan 24
Last Quarter
Jan 30
New
Feb 6
First Quarter

Hourly Weather History & Observations

Time (EST) Temp. Windchill Dew Point Humidity Pressure Visibility Wind Dir Wind Speed Gust Speed Precip Events Conditions
12:15 AM 26.1 °F 12.3 °F 21.2 °F 82% 29.74 in 4.0 mi West 19.6 mph 26.5 mph N/A Snow Light Snow
12:35 AM 25.5 °F 10.6 °F 21.6 °F 85% 29.75 in 3.0 mi WNW 23.0 mph 34.5 mph N/A Snow Light Snow
12:54 AM 24.8 °F 11.5 °F 21.0 °F 86% 29.75 in 2.0 mi West 17.3 mph 32.2 mph N/A Snow Light Snow
1:15 AM 24.6 °F 11.7 °F 22.1 °F 90% 29.76 in 1.0 mi West 16.1 mph 28.8 mph N/A Snow Light Snow
1:35 AM 25.2 °F 12.0 °F 20.1 °F 81% 29.77 in 2.5 mi West 17.3 mph 27.6 mph N/A Snow Light Snow
1:55 AM 24.8 °F 11.5 °F 21.6 °F 87% 29.77 in 1.5 mi West 17.3 mph 29.9 mph N/A Snow Light Snow
2:15 AM 24.6 °F 11.3 °F 21.9 °F 89% 29.78 in 1.0 mi West 17.3 mph 28.8 mph N/A Snow Light Snow
2:35 AM 24.8 °F 11.9 °F 22.5 °F 91% 29.79 in 1.0 mi WNW 16.1 mph 24.2 mph N/A Snow Light Snow
2:55 AM 25.0 °F 12.6 °F 22.3 °F 89% 29.80 in 1.0 mi West 15.0 mph 25.3 mph N/A Snow Snow
3:15 AM 25.2 °F 12.9 °F 22.8 °F 91% 29.81 in 1.0 mi WNW 15.0 mph 26.5 mph N/A Snow Light Snow
3:35 AM 25.2 °F 12.4 °F 23.0 °F 91% 29.82 in 1.0 mi WNW 16.1 mph 27.6 mph N/A Snow Snow
3:55 AM 25.3 °F 14.1 °F 21.9 °F 87% 29.83 in 1.2 mi WNW 12.7 mph 21.9 mph N/A Snow Light Snow
4:15 AM 24.8 °F 11.5 °F 21.7 °F 88% 29.83 in 1.2 mi NW 17.3 mph 27.6 mph N/A Snow Light Snow
4:35 AM 24.8 °F 11.1 °F 21.6 °F 87% 29.84 in 1.2 mi WNW 18.4 mph 23.0 mph N/A Snow Light Snow
4:55 AM 24.6 °F 11.7 °F 20.1 °F 83% 29.85 in 1.8 mi WNW 16.1 mph 27.6 mph N/A Snow Light Snow
5:15 AM 24.6 °F 11.7 °F 19.4 °F 81% 29.86 in 2.5 mi NW 16.1 mph 25.3 mph N/A Snow Light Snow
5:35 AM 24.4 °F 11.0 °F 19.4 °F 81% 29.87 in 2.5 mi WNW 17.3 mph 26.5 mph N/A Snow Light Snow
5:55 AM 24.6 °F 12.7 °F 19.0 °F 79% 29.88 in 4.0 mi WNW 13.8 mph 24.2 mph N/A Snow Light Snow
6:15 AM 24.6 °F 13.8 °F 19.0 °F 79% 29.89 in 5.0 mi WNW 11.5 mph 21.9 mph N/A Snow Light Snow
6:35 AM 23.9 °F 12.3 °F 19.4 °F 83% 29.90 in 3.0 mi WNW 12.7 mph 21.9 mph N/A Snow Light Snow
6:55 AM 23.9 °F 13.5 °F 19.9 °F 85% 29.91 in 3.0 mi WNW 10.4 mph 19.6 mph N/A Snow Light Snow
7:15 AM 24.1 °F 13.7 °F 19.4 °F 82% 29.91 in 3.0 mi WNW 10.4 mph 23.0 mph N/A Snow Light Snow
7:35 AM 24.1 °F 11.5 °F 20.1 °F 85% 29.92 in 2.5 mi WNW 15.0 mph 20.7 mph N/A Snow Light Snow
7:55 AM 24.3 °F 11.7 °F 19.9 °F 84% 29.92 in 3.0 mi WNW 15.0 mph 21.9 mph N/A Snow Light Snow
8:15 AM 24.4 °F 14.2 °F 19.4 °F 81% 29.93 in 4.0 mi WNW 10.4 mph 18.4 mph N/A Snow Light Snow
8:35 AM 24.4 °F 13.0 °F 19.6 °F 82% 29.94 in 2.5 mi NW 12.7 mph 19.6 mph N/A Snow Light Snow
8:55 AM 24.4 °F 11.9 °F 19.2 °F 81% 29.95 in 2.5 mi WNW 15.0 mph 20.7 mph N/A Snow Light Snow
9:15 AM 24.4 °F 13.5 °F 19.4 °F 81% 29.96 in 2.0 mi NW 11.5 mph 17.3 mph N/A Snow Light Snow
9:35 AM 24.3 °F 12.7 °F 19.8 °F 83% 29.97 in 1.5 mi NW 12.7 mph 17.3 mph N/A Snow Light Snow
9:55 AM 24.3 °F 12.7 °F 19.9 °F 84% 29.98 in 1.2 mi NW 12.7 mph 19.6 mph N/A Snow Light Snow
10:15 AM 24.3 °F 13.3 °F 19.2 °F 81% 29.98 in 2.0 mi NNW 11.5 mph 16.1 mph N/A Snow Light Snow
10:35 AM 24.4 °F 14.9 °F 18.1 °F 77% 29.99 in 3.0 mi NW 9.2 mph - N/A Snow Light Snow
10:55 AM 24.1 °F 14.4 °F 18.1 °F 78% 29.99 in 3.0 mi NW 9.2 mph - N/A Snow Light Snow
11:15 AM 23.9 °F 12.9 °F 17.8 °F 77% 29.99 in 3.0 mi NW 11.5 mph 17.3 mph N/A Snow Light Snow
11:35 AM 24.4 °F 13.5 °F 16.3 °F 71% 30.00 in 7.0 mi NW 11.5 mph 17.3 mph N/A Snow Light Snow
11:55 AM 24.4 °F 14.2 °F 16.7 °F 72% 29.99 in 5.0 mi NW 10.4 mph 16.1 mph N/A Snow Light Snow
12:15 PM 23.9 °F 13.5 °F 18.0 °F 78% 29.99 in 1.8 mi NW 10.4 mph - N/A Snow Light Snow
12:34 PM 23.9 °F 15.0 °F 17.4 °F 76% 29.99 in 4.0 mi NW 8.1 mph - N/A Snow Light Snow
12:55 PM 23.9 °F 14.2 °F 16.2 °F 72% 29.99 in 7.0 mi WNW 9.2 mph - N/A Snow Light Snow
1:15 PM 24.4 °F 15.6 °F 15.8 °F 70% 29.99 in 4.0 mi WNW 8.1 mph - N/A Snow Light Snow
1:35 PM 23.9 °F 12.9 °F 16.7 °F 74% 29.99 in 7.0 mi NW 11.5 mph 17.3 mph N/A Snow Light Snow
1:55 PM 23.7 °F 14.7 °F 18.5 °F 80% 29.99 in 1.2 mi West 8.1 mph - N/A Snow Light Snow
2:15 PM 24.4 °F 13.0 °F 14.7 °F 67% 29.98 in 10.0 mi West 12.7 mph - N/A   Overcast
2:35 PM 23.9 °F 14.2 °F 15.4 °F 70% 29.99 in 10.0 mi West 9.2 mph 17.3 mph N/A   Overcast
2:55 PM 23.5 °F 13.0 °F 15.4 °F 71% 29.99 in 7.0 mi West 10.4 mph 17.3 mph N/A Snow Light Snow
3:15 PM 22.8 °F 13.6 °F 16.5 °F 77% 29.99 in 2.0 mi West 8.1 mph - N/A Snow Light Snow
3:35 PM 23.0 °F 11.1 °F 14.9 °F 71% 30.00 in 10.0 mi West 12.7 mph 17.3 mph N/A Snow Light Snow
3:55 PM 22.5 °F 10.5 °F 14.0 °F 70% 30.01 in 10.0 mi West 12.7 mph 17.3 mph N/A Snow Light Snow
4:15 PM 21.9 °F 11.0 °F 12.7 °F 68% 30.01 in 10.0 mi West 10.4 mph 18.4 mph N/A Snow Light Snow
4:35 PM 21.7 °F 14.3 °F 12.2 °F 67% 30.01 in 10.0 mi WSW 5.8 mph - N/A Snow Light Snow
4:55 PM 21.6 °F 11.3 °F 12.0 °F 67% 30.00 in 10.0 mi West 9.2 mph - N/A   Overcast
5:15 PM 21.4 °F 11.1 °F 12.2 °F 68% 30.00 in 10.0 mi WSW 9.2 mph - N/A   Overcast
5:35 PM 21.2 °F 12.6 °F 12.4 °F 69% 30.00 in 10.0 mi WSW 6.9 mph - N/A   Overcast
5:55 PM 21.2 °F 13.6 °F 12.6 °F 69% 29.99 in 10.0 mi SSW 5.8 mph - N/A   Overcast
6:15 PM 21.2 °F 14.9 °F 12.7 °F 70% 29.99 in 10.0 mi SW 4.6 mph - N/A   Overcast
6:35 PM 21.2 °F 13.6 °F 12.7 °F 70% 29.99 in 10.0 mi SW 5.8 mph - N/A   Overcast
6:55 PM 21.7 °F 9.0 °F 12.7 °F 68% 29.99 in 10.0 mi SSW 13.8 mph - N/A   Overcast
7:15 PM 21.7 °F 10.8 °F 13.1 °F 69% 30.00 in 10.0 mi WSW 10.4 mph 18.4 mph N/A Snow Light Snow
7:35 PM 21.6 °F 9.3 °F 13.5 °F 71% 29.99 in 10.0 mi SW 12.7 mph 19.6 mph N/A Snow Light Snow
7:55 PM 21.2 °F 10.1 °F 13.3 °F 72% 29.99 in 10.0 mi SW 10.4 mph - N/A Snow Light Snow
8:15 PM 21.2 °F 9.5 °F 13.8 °F 73% 29.99 in 10.0 mi SSW 11.5 mph 17.3 mph N/A Snow Light Snow
8:35 PM 20.7 °F 11.0 °F 13.5 °F 74% 29.99 in 10.0 mi SSW 8.1 mph - N/A Snow Light Snow
8:54 PM 20.1 °F 8.8 °F 13.1 °F 74% 29.98 in 10.0 mi South 10.4 mph - N/A   Overcast
9:15 PM 19.4 °F 7.9 °F 13.1 °F 76% 29.97 in 10.0 mi South 10.4 mph - N/A Snow Light Snow
9:35 PM 18.5 °F 7.5 °F 12.7 °F 78% 29.96 in 10.0 mi South 9.2 mph - N/A   Overcast
9:55 PM 18.1 °F 7.1 °F 12.9 °F 80% 29.95 in 10.0 mi South 9.2 mph - N/A Snow Light Snow
10:15 PM 17.6 °F 8.2 °F 12.2 °F 79% 29.94 in 7.0 mi SSW 6.9 mph - N/A Snow Light Snow
10:34 PM 17.6 °F 5.7 °F 11.7 °F 78% 29.93 in 10.0 mi South 10.4 mph 17.3 mph N/A Snow Light Snow
10:55 PM 17.6 °F 4.3 °F 10.9 °F 75% 29.92 in 10.0 mi South 12.7 mph - N/A   Overcast
11:15 PM 17.4 °F 7.1 °F 10.4 °F 74% 29.92 in 10.0 mi South 8.1 mph 18.4 mph N/A   Overcast
11:35 PM 16.2 °F 5.5 °F 9.9 °F 76% 29.91 in 10.0 mi South 8.1 mph 16.1 mph N/A   Mostly Cloudy
11:55 PM 15.3 °F 3.5 °F 9.5 °F 78% 29.90 in 10.0 mi South 9.2 mph - N/A   Scattered Clouds